Regional Weather Roundup
Issued by NWS

Home | Current Version | Previous Version | Graphics & Text | Print | Product List | Glossary On
Versions: 1 2 3 4 5 6 7 8 9 10 11 12 13 14 15 16 17 18 19 20 21 22 23 24 25 26 27 28 29 30 31 32 33 34 35 36 37 38 39 40 41 42 43 44 45 46 47 48 49 50
000
ASUS45 KSLC 290910
RWRUT

UTAH REGIONAL WEATHER ROUNDUP
NATIONAL WEATHER SERVICE SALT LAKE CITY UT
300 AM MDT TUE JUL 29 2014

UTZ001>011-023>025-291000-

NORTHERN UTAH

CITY           SKY/WX    TMP DP  RH WIND       PRES   REMARKS
HILL AFB       CLOUDY    67  58  73 E3        30.22F
LOGAN          LGT RAIN  67  59  75 CALM      30.22F
OGDEN          LGT RAIN  67  61  81 CALM      30.20F
PROVO AIRPORT  CLOUDY    68  63  83 NW8       30.23S
SALT LAKE CITY LGT RAIN  68  63  84 CALM      30.20F
VERNAL         CLOUDY    65  59  81 MISG      30.29S
WENDOVER       CLOUDY    72  59  64 N6        30.21S
HEBER CITY     CLOUDY    61  57  88 CALM      30.28F
WEST JORDAN    CLOUDY    68  68 100 CALM      30.22F

$$

UTZ012>022-026-027-291000-

SOUTHERN UTAH

CITY           SKY/WX    TMP DP  RH WIND       PRES   REMARKS
BRYCE CANYON   PTCLDY    51  50  96 W3        30.42F
CEDAR CITY     MOCLDY    65  53  65 SE8       30.27S
MILFORD        PTCLDY    69  53  56 S12       30.21S
MOAB/CYNLANDS  CLEAR     65  62  90 SE10      30.23F
PRICE          MOCLDY    64  57  78 E5        30.32S
ST GEORGE      CLOUDY    77  57  50 SE5       30.11S
KANAB            N/A     61  61 100 N3        30.29S

$$

REGIONAL REPORTS     COLORADO/ARIZONA

CITY           SKY/WX    TMP DP  RH WIND       PRES   REMARKS
CRAIG, CO      CLOUDY    57  53  86 CALM      30.33S
GRAND JUNCTION HVY RAIN  62  62 100 SE7       30.31S FOG
RIFLE          CLOUDY    62  59  90 W12       30.31S
MONTROSE       CLOUDY    62  59  90 W6        30.37S
CORTEZ         LGT RAIN  61  61 100 N3        30.35F
PAGE, AZ       CLEAR     75  52  44 SW3       30.19R
GRAND CANYON   CLEAR     52  50  93 CALM      30.38S
KINGMAN        CLEAR     72  60  66 SE10      30.13F
FLAGSTAFF      CLEAR     54  51  90 CALM      30.41S

$$

REGIONAL REPORTS    NEVADA/IDAHO/WYOMING

CITY           SKY/WX    TMP DP  RH WIND       PRES   REMARKS
LAS VEGAS, NV  PTCLDY    81  62  52 S10       30.00S
ELY            MOCLDY    57  54  89 S9        30.31F
ELKO           CLOUDY    67  52  58 NE5       30.22S
POCATELLO, ID  CLOUDY    63  62  97 N6        30.21F
BURLEY         CLOUDY    67  58  72 NE3       30.16S
EVANSTON, WY   CLOUDY    57  54  89 SW5       30.37F
ROCK SPRINGS   CLOUDY    65  46  50 SW10      30.32F

$$



USA.gov is the U.S. government's official web portal to all federal, state and local government web resources and services.